Back to catalog

FENGYUN 1C DEB

AliveSSO
NORAD 29769·DEBRIS·🇨🇳 China

Launched May 10, 1999 from Taiyuan Satellite Launch Center

Loading…

Next Passes (next 24 hours)

TLE

FreshSource: Space-Track

Epoch: Sep 12, 2026, 16:23 UTC

1 29769U 99025BK  26255.68297514  .00001517  00000-0  77914-3 0  9995
2 29769  99.0876 322.8532 0092376  78.7963 282.3576 14.14705786  5490

Track FENGYUN 1C DEB in real time with AllMySat

Download on the App Store